Tracking 18793 objects as of 24-September-2017
HD Live streaming from Space Station
objects crossing your sky now

INS-1A

Track INS-1A now!
10-day predictions


NORAD ID: 41949
Int'l Code: 2017-008B
Perigee: 500.5 km
Apogee: 513.5 km
Inclination: 97.5 °
Period: 94.6 minutes
Semi major axis: 6878 km
RCS: Unknown
Launch date: February 15, 2017
Source: India (IND)
Launch site: SIRHARIKOTA (SRI)
aabbcc
Your satellite tracking list
Your tracking list is empty





NASA's NSSDC Master Catalog

Two Line Element Set (TLE):
1 41949U 17008B   17266.71421320 +.00001743 +00000-0 +79442-4 0  9990
2 41949 097.4843 327.4596 0009448 196.4295 163.6636 15.21974829033512
Source of the keplerian elements: AFSPC